Погода в Массури

Индия     30°27′21″N   78°04′24″E
темп.,
°C
ветер,
м/с
пор.,
м/с
влажн.,
%
обл.,
%
осадки,
мм/ч
давл.,
гПа
погр.,
м
28 ноября, вс
вс2823:30+9св32660 0.0 102037
02:30+9св33670 0.0 102043
05:30+9св33630 0.0 102045
08:30+12св23500 0.0 102196
11:30+18зюз21360 0.0 10191067
14:30+18зюз32370 0.0 10161144
17:30+11в00620 0.0 101810
20:30+10св32620 0.0 102030
29 ноября, пн
пн2923:30+10св33640 0.0 102041
02:30+9св33620 0.0 101942
05:30+9св33510 0.0 101944
08:30+12св33390 0.0 102085
11:30+19юз31290 0.0 1018914
14:30+19зюз21340 0.0 1016886
17:30+12ссв11579 0.0 101711
20:30+11св33570 0.0 101939
30 ноября, вт
вт3023:30+10св33540 0.0 101938
02:30+10св334118 0.0 101739
05:30+9св433146 0.0 101741
08:30+12св3330100 0.0 101778
11:30+20юз2120100 0.0 1016621
14:30+19юз212794 0.0 1015727
17:30+11св115195 0.0 101610
20:30+11св3247100 0.0 101827
1 декабря, ср
ср123:30+11св3344100 0.0 101935
02:30+10св3243100 0.0 101826
05:30+10св3238100 0.0 101832
08:30+13св2237100 0.0 101959
11:30+18юз2128100 0.0 1018560
14:30+18юз2132100 0.0 1016619
17:30+12ссв1149100 0.0 101810
20:30+12св2247100 0.0 101920
2 декабря, чт
чт223:30+13св2245100 0.0 101830
02:30+12св2242100 0.0 101727
05:30+13св3236100 0.0 101732
08:30+15всв2236100 0.0 101846
11:30+19юз2128100 0.0 1018674
14:30+18юз2231100 0.0 1017729
17:30+13вюв0051100 0.0 101810
20:30+12св2250100 0.0 102014